TimeMDT,TemperatureF,Dew PointF,Humidity,Sea Level PressureIn,VisibilityMPH,Wind Direction,Wind SpeedMPH,Gust SpeedMPH,PrecipitationIn,Events,Conditions,WindDirDegrees,DateUTC
12:53 AM,70.0,44.1,39,30.03,10.0,ENE,11.5,-,N/A,,Clear,60,2013-07-19 06:53:00
1:53 AM,66.9,44.1,44,30.03,10.0,NNE,8.1,-,N/A,,Clear,20,2013-07-19 07:53:00
2:53 AM,66.0,44.1,45,30.03,10.0,North,9.2,-,N/A,,Clear,10,2013-07-19 08:53:00
3:53 AM,66.0,44.1,45,30.02,10.0,North,6.9,-,N/A,,Clear,350,2013-07-19 09:53:00
4:53 AM,63.0,43.0,48,30.03,10.0,North,3.5,-,N/A,,Clear,350,2013-07-19 10:53:00
5:53 AM,60.1,43.0,53,30.04,10.0,NW,4.6,-,N/A,,Clear,320,2013-07-19 11:53:00
6:53 AM,64.9,45.0,48,30.03,10.0,NW,6.9,-,N/A,,Clear,310,2013-07-19 12:53:00
7:53 AM,69.1,46.0,44,30.03,10.0,Calm,Calm,-,N/A,,Partly Cloudy,0,2013-07-19 13:53:00
8:53 AM,73.9,46.0,37,30.03,10.0,NNW,4.6,-,N/A,,Scattered Clouds,340,2013-07-19 14:53:00
9:53 AM,75.0,51.1,43,30.02,10.0,South,3.5,-,N/A,,Scattered Clouds,190,2013-07-19 15:53:00
10:53 AM,77.0,48.0,36,29.99,10.0,Variable,3.5,-,N/A,,Partly Cloudy,0,2013-07-19 16:53:00
11:53 AM,81.0,48.9,33,29.97,10.0,SW,8.1,-,N/A,,Partly Cloudy,220,2013-07-19 17:53:00
12:53 PM,84.9,48.9,29,29.95,10.0,SW,5.8,-,N/A,,Partly Cloudy,230,2013-07-19 18:53:00
1:53 PM,87.1,46.0,24,29.93,10.0,Calm,Calm,-,N/A,,Partly Cloudy,0,2013-07-19 19:53:00
2:53 PM,89.1,39.0,17,29.90,10.0,SW,6.9,-,N/A,,Partly Cloudy,230,2013-07-19 20:53:00
3:53 PM,93.0,42.1,17,29.87,10.0,NE,8.1,-,N/A,,Partly Cloudy,50,2013-07-19 21:53:00
4:36 PM,91.0,45.0,20,29.98,10.0,East,13.8,20.7,N/A,,Clear,80,2013-07-19 22:36:00
4:53 PM,91.0,44.1,20,29.87,10.0,East,9.2,18.4,N/A,,Partly Cloudy,90,2013-07-19 22:53:00
5:53 PM,90.0,43.0,19,29.86,10.0,East,8.1,17.3,N/A,,Partly Cloudy,80,2013-07-19 23:53:00
6:53 PM,90.0,42.1,19,29.84,10.0,East,8.1,-,N/A,,Clear,90,2013-07-20 00:53:00
7:53 PM,90.0,27.0,10,29.84,10.0,NNW,12.7,-,N/A,,Clear,340,2013-07-20 01:53:00
8:53 PM,82.9,39.0,21,29.86,10.0,NNE,10.4,-,N/A,,Clear,20,2013-07-20 02:53:00
9:53 PM,79.0,37.9,23,29.89,10.0,NNE,9.2,-,N/A,,Clear,20,2013-07-20 03:53:00
10:53 PM,75.9,39.9,27,29.91,10.0,North,9.2,-,N/A,,Clear,360,2013-07-20 04:53:00
11:53 PM,73.9,39.0,28,29.91,10.0,North,9.2,-,N/A,,Clear,350,2013-07-20 05:53:00